Retour au catalogue

CZ-6A DEB

ActifPO
NORAD 61322·DEBRIS·🇨🇳 China

Lancé Aug 6, 2024 depuis Taiyuan Satellite Launch Center

Loading…

Prochains Passages (prochaines 24 heures)

TLE

FraisSource: Space-Track

Époque: Sep 13, 2026, 23:18 UTC

1 61322U 24140UK  26256.97125621  .00005241  00000-0  83706-3 0  9998
2 61322  88.8777 247.4036 0106740 308.0743  51.0880 14.67958281108226

Suivez CZ-6A DEB en temps réel avec AllMySat

Download on the App Store